Location: Shannon
(40.5500°S, 175.4167°E)
Time: 07:09:10
(UTC+00:00)

Cosmos 1933 Rocket - Pass Details

Date: 17 November 2025
Orbit: 601 x 623 km, 82.5° (Epoch: 14 December)

Event Time Altitude Azimuth Distance (km) Brightness Sun altitude
Exits shadow 15:40:16 16° 325° (NW) 1,635 5.1 -11.9°
Maximum altitude 15:43:31 43° 258° (WSW) 890 4.1 -11.4°
Drops below altitude 10° 15:47:49 10° 186° (S) 2,029 6.6 -10.8°
Sets 15:50:10 0° 179° (S) 2,945 7.6 -10.4°
